Tillbaka till svenska Fidonet
English   Information   Debug  
FILM   0/18
FNEWS_PUBLISH   4983
FN_SYSOP   42232
FN_SYSOP_OLD1   71952
FTP_FIDO   0/2
FTSC_PUBLIC   0/13976
FUNNY   0/4886
GENEALOGY.EUR   0/71
GET_INFO   105
GOLDED   0/408
HAM   0/16719
HOLYSMOKE   0/6791
HOT_SITES   0/1
HTMLEDIT   0/71
HUB203   466
HUB_100   264
HUB_400   39
HUMOR   0/29
IC   0/2851
INTERNET   0/424
INTERUSER   0/3
IP_CONNECT   719
JAMNNTPD   0/233
JAMTLAND   0/47
KATTY_KORNER   0/41
LAN   0/16
LINUX-USER   0/19
LINUXHELP   0/1155
LINUX   0/22386
LINUX_BBS   0/957
mail   18.68
mail_fore_ok   249
MENSA   0/341
MODERATOR   0/102
MONTE   0/992
MOSCOW_OKLAHOMA   0/1245
MUFFIN   0/783
MUSIC   0/321
N203_STAT   938
N203_SYSCHAT   313
NET203   321
NET204   69
NET_DEV   0/10
NORD.ADMIN   0/101
NORD.CHAT   0/2572
NORD.FIDONET   189
NORD.HARDWARE   0/28
NORD.KULTUR   0/114
NORD.PROG   0/32
NORD.SOFTWARE   0/88
NORD.TEKNIK   0/58
NORD   0/453
OCCULT_CHAT   0/93
OS2BBS   0/787
OS2DOSBBS   0/580
OS2HW   0/42
OS2INET   0/37
OS2LAN   0/134
OS2PROG   0/36
OS2REXX   0/113
OS2USER-L   207
OS2   0/4831
OSDEBATE   0/18996
PASCAL   0/490
PERL   0/457
PHP   0/45
POINTS   0/405
POLITICS   0/29554
POL_INC   0/14731
PSION   103
R20_ADMIN   1133
R20_AMATORRADIO   0/2
R20_BEST_OF_FIDONET   16
R20_CHAT   0/897
R20_DEPP   0/3
R20_DEV   400
R20_ECHO2   1890
R20_ECHOPRES   0/35
R20_ESTAT   0/719
R20_FIDONETPROG...
...RAM.MYPOINT
  0/2
R20_FIDONETPROGRAM   0/22
R20_FIDONET   0/248
R20_FILEFIND   0/24
R20_FILEFOUND   0/22
R20_HIFI   0/3
R20_INFO2   3783
R20_INTERNET   0/12940
R20_INTRESSE   0/60
R20_INTR_KOM   0/99
R20_KANDIDAT.CHAT   42
R20_KANDIDAT   28
R20_KOM_DEV   112
R20_KONTROLL   0/13360
R20_KORSET   0/18
R20_LOKALTRAFIK   0/24
R20_MODERATOR   0/1852
R20_NC   76
R20_NET200   245
R20_NETWORK.OTH...
...ERNETS
  0/13
R20_OPERATIVSYS...
...TEM.LINUX
  0/44
R20_PROGRAMVAROR   0/1
R20_REC2NEC   534
R20_SFOSM   0/341
R20_SF   0/108
R20_SPRAK.ENGLISH   0/1
R20_SQUISH   107
R20_TEST   2
R20_WORST_OF_FIDONET   20
RAR   0/9
RA_MULTI   106
RA_UTIL   0/162
REGCON.EUR   0/2069
REGCON   0/13
SCIENCE   0/1206
SF   0/239
SHAREWARE_SUPPORT   0/5146
SHAREWRE   0/14
SIMPSONS   0/169
STATS_OLD1   0/2539.065
STATS_OLD2   0/2530
STATS_OLD3   0/2395.095
STATS_OLD4   0/1692.25
SURVIVOR   0/495
SYSOPS_CORNER   0/3
SYSOP   0/84
TAGLINES   0/112
TEAMOS2   0/4530
TECH   0/2617
TEST.444   0/105
TRAPDOOR   0/19
TREK   0/755
TUB   0/290
UFO   0/40
UNIX   0/1316
USA_EURLINK   0/102
USR_MODEMS   0/1
VATICAN   0/2740
VIETNAM_VETS   0/14
VIRUS   0/378
VIRUS_INFO   0/201
VISUAL_BASIC   0/473
WHITEHOUSE   0/5187
WIN2000   0/101
WIN32   0/30
WIN95   0/4291
WIN95_OLD1   0/70272
WINDOWS   0/1517
WWB_SYSOP   0/419
WWB_TECH   0/810
ZCC-PUBLIC   0/1
ZEC   4

 
4DOS   0/134
ABORTION   0/7
ALASKA_CHAT   0/506
ALLFIX_FILE   0/1313
ALLFIX_FILE_OLD1   0/7997
ALT_DOS   0/152
AMATEUR_RADIO   0/1039
AMIGASALE   0/14
AMIGA   0/331
AMIGA_INT   0/1
AMIGA_PROG   0/20
AMIGA_SYSOP   0/26
ANIME   0/15
ARGUS   0/924
ASCII_ART   0/340
ASIAN_LINK   0/651
ASTRONOMY   0/417
AUDIO   0/92
AUTOMOBILE_RACING   0/105
BABYLON5   0/17862
BAG   135
BATPOWER   0/361
BBBS.ENGLISH   0/382
BBSLAW   0/109
BBS_ADS   0/5290
BBS_INTERNET   0/507
BIBLE   0/3563
BINKD   0/1119
BINKLEY   0/215
BLUEWAVE   0/2173
CABLE_MODEMS   0/25
CBM   0/46
CDRECORD   0/66
CDROM   0/20
CLASSIC_COMPUTER   0/378
COMICS   0/15
CONSPRCY   0/899
COOKING   42022
COOKING_OLD1   0/24719
COOKING_OLD2   0/40862
COOKING_OLD3   0/37489
COOKING_OLD4   0/35496
COOKING_OLD5   9370
C_ECHO   0/189
C_PLUSPLUS   0/31
DIRTY_DOZEN   0/201
DOORGAMES   0/2333
DOS_INTERNET   0/196
duplikat   6102
ECHOLIST   0/18295
EC_SUPPORT   0/318
ELECTRONICS   0/359
ELEKTRONIK.GER   1534
ENET.LINGUISTIC   0/13
ENET.POLITICS   0/4
ENET.SOFT   0/11701
ENET.SYSOP   34335
ENET.TALKS   0/32
ENGLISH_TUTOR   0/2000
EVOLUTION   288/1335
FDECHO   0/217
FDN_ANNOUNCE   0/7068
FIDONEWS   25122
FIDONEWS_OLD1   0/49742
FIDONEWS_OLD2   0/35949
FIDONEWS_OLD3   0/30874
FIDONEWS_OLD4   0/37224
FIDO_SYSOP   12973
FIDO_UTIL   0/180
FILEFIND   0/209
FILEGATE   0/212
Möte HAM, 16719 texter
 lista första sista föregående nästa
Text 2237, 787 rader
Skriven 2008-04-11 00:00:28 av Amsat List (1:323/120.0)
Ärende: [keps]  orb08101.amsa
=============================
[keps]  orb08101.amsa

Return-Path: <keps-bounces@amsat.org>
X-Rcpt: craig.healy@chowda.com
X-UIDL: 1207885501.6395

SB KEPS @ AMSAT  $ORB08101.O
Orbital Elements  08101.OSCAR

HR AMSAT ORBITAL ELEMENTS FOR OSCAR SATELLITES
FROM WA5QGD FORT WORTH,TX April 10, 2008
Send Subscribe/unsubscribe to KEPS at 
http://www.amsat.org/mailman/listinfo/keps
BID: ORB08101.O
TO ALL RADIO AMATEURS BT

Satellite: AO-07
Catalog number: 07530
Epoch time:      08100.66006116
Element set:    0149
Inclination:      101.4733 deg
RA of node:       134.4326 deg
Eccentricity:    0.0011996
Arg of perigee:   037.2395 deg
Mean anomaly:     322.9506 deg
Mean motion:   12.53573729 rev/day
Decay rate:       -2.7e-07 rev/day^2
Epoch rev:           52839
Checksum:              287

Satellite: AO-10
Catalog number: 14129
Epoch time:      08097.37080946
Element set:    0492
Inclination:      025.9224 deg
RA of node:       221.7469 deg
Eccentricity:    0.6009885
Arg of perigee:   113.1132 deg
Mean anomaly:     318.9819 deg
Mean motion:   02.05872751 rev/day
Decay rate:      -2.17e-06 rev/day^2
Epoch rev:           18662
Checksum:              317

Satellite: UO-11
Catalog number: 14781
Epoch time:      08100.68162962
Element set:    0640
Inclination:      098.1612 deg
RA of node:       133.6688 deg
Eccentricity:    0.0008115
Arg of perigee:   297.1732 deg
Mean anomaly:     062.8601 deg
Mean motion:   14.79632973 rev/day
Decay rate:       1.73e-06 rev/day^2
Epoch rev:           29372
Checksum:              308

Satellite: RS-15
Catalog number: 23439
Epoch time:      08100.89849777
Element set:    0123
Inclination:      064.8138 deg
RA of node:       245.4742 deg
Eccentricity:    0.0149656
Arg of perigee:   135.8486 deg
Mean anomaly:     225.4496 deg
Mean motion:   11.27552104 rev/day
Decay rate:       -3.9e-07 rev/day^2
Epoch rev:           54726
Checksum:              333

Satellite: FO-29
Catalog number: 24278
Epoch time:      08101.75152378
Element set:     747
Inclination:      098.5873 deg
RA of node:       026.8583 deg
Eccentricity:    0.0351324
Arg of perigee:   030.2103 deg
Mean anomaly:     331.8792 deg
Mean motion:   13.52936991 rev/day
Decay rate:        7.0e-07 rev/day^2
Epoch rev:           57527
Checksum:              324

Satellite: SO-33
Catalog number: 25509
Epoch time:      08101.73836972
Element set:     172
Inclination:      031.4313 deg
RA of node:       337.7280 deg
Eccentricity:    0.0354811
Arg of perigee:   157.5901 deg
Mean anomaly:     204.0686 deg
Mean motion:   14.28211241 rev/day
Decay rate:       3.18e-06 rev/day^2
Epoch rev:           49396
Checksum:              292

Satellite: AO-40
Catalog number: 26609
Epoch time:      08101.13444296
Element set:      38
Inclination:      007.5481 deg
RA of node:       088.6252 deg
Eccentricity:    0.7916660
Arg of perigee:   069.9301 deg
Mean anomaly:     353.9337 deg
Mean motion:   01.25582268 rev/day
Decay rate:      -2.51e-06 rev/day^2
Epoch rev:            3418
Checksum:              307

Satellite: VO-52
Catalog number: 28650
Epoch time:      08100.64828243
Element set:     900
Inclination:      097.7939 deg
RA of node:       169.1239 deg
Eccentricity:    0.0027189
Arg of perigee:   006.9381 deg
Mean anomaly:     353.2191 deg
Mean motion:   14.81447628 rev/day
Decay rate:       3.67e-06 rev/day^2
Epoch rev:           15845
Checksum:              330

Satellite: PO-63
Catalog number: 29712
Epoch time:      08101.62187680
Element set:     345
Inclination:      097.8807 deg
RA of node:       161.0632 deg
Eccentricity:    0.0013113
Arg of perigee:   238.5070 deg
Mean anomaly:     121.4863 deg
Mean motion:   14.80098887 rev/day
Decay rate:       7.98e-06 rev/day^2
Epoch rev:            6747
Checksum:              318

/EX
SB KEPS @ AMSAT  $ORB08101.D
Orbital Elements  08101.MICROS

HR AMSAT ORBITAL ELEMENTS FOR THE MICROSATS
FROM WA5QGD FORT WORTH,TX April 10, 2008
Send Subscribe/unsubscribe to KEPS at 
http://www.amsat.org/mailman/listinfo/keps
BID: ORB08101.D
TO ALL RADIO AMATEURS BT

Satellite: AO-16
Catalog number: 20439
Epoch time:      08100.51575602
Element set:     293
Inclination:      098.2253 deg
RA of node:       084.1056 deg
Eccentricity:    0.0011563
Arg of perigee:   025.6306 deg
Mean anomaly:     334.5446 deg
Mean motion:   14.31789696 rev/day
Decay rate:        7.0e-08 rev/day^2
Epoch rev:           95109
Checksum:              296

Satellite: LO-19
Catalog number: 20442
Epoch time:      08100.64433503
Element set:    0220
Inclination:      098.1985 deg
RA of node:       092.9663 deg
Eccentricity:    0.0012452
Arg of perigee:   023.4026 deg
Mean anomaly:     336.7735 deg
Mean motion:   14.32028521 rev/day
Decay rate:        1.2e-07 rev/day^2
Epoch rev:           95126
Checksum:              268

Satellite: AO-27
Catalog number: 22825
Epoch time:      08100.66339666
Element set:    0942
Inclination:      098.3789 deg
RA of node:       063.2791 deg
Eccentricity:    0.0009358
Arg of perigee:   101.5131 deg
Mean anomaly:     258.7096 deg
Mean motion:   14.29234993 rev/day
Decay rate:       -5.6e-07 rev/day^2
Epoch rev:           75798
Checksum:              348

Satellite: IO-26
Catalog number: 22826
Epoch time:      08100.79933866
Element set:    0645
Inclination:      098.3703 deg
RA of node:       064.3502 deg
Eccentricity:    0.0009863
Arg of perigee:   097.7726 deg
Mean anomaly:     262.4579 deg
Mean motion:   14.29483661 rev/day
Decay rate:        6.0e-08 rev/day^2
Epoch rev:           75809
Checksum:              343

